sat.trackr.live / text

‹ back to catalog

STARLINK-2502

NORAD 48327 · 2021-036BD

PAYLOAD ACTIVE UNKNOWN

§ Identity

Operator
Country
US
Launch date
2021-04-29
Launch site
AFETR
Launch vehicle
Mass (kg)
RCS (m²)

Purposes: comms

External: N2YO · Heavens-Above · Gunter

§ Orbital elements

Epoch: 2026-05-25T03:29:32.108928Z

Period
94.01 min
Inclination
53.1614°
Eccentricity
0.0001387
Mean motion
15.31693363 rev/d
Perigee alt
469.8 km
Apogee alt
471.7 km
Semi-major
6,848.9 km
B*
-3.5859e-6
RAAN
105.5065°
Arg perigee
102.9625°
Mean anomaly
257.1532°
Rev number
27,975

§ Raw data

STARLINK-25021 48327U 21036BD  26145.14551052 -.00000476  00000+0 -35859-5 0  99902 48327  53.1614 105.5065 0001387 102.9625 257.1532 15.31693363279757

JSON: /api/v1/satellites/48327 · /tle

For live sub-satellite position, see the globe view (requires WebGL).

§ Visibility from observer

Set your observer location to see the next 7 days of passes ≥ 10°. The values pass through the URL so the page stays shareable.

No JS? Fill the form by hand. The geolocation button needs JavaScript.